Perry, FL

11:15 PM EDT on July 23, 2017 (GMT -0400)
Perry

Weather History for K40J - December, 2012

Change the Weather History Date:

Tuesday, December 18, 2012

  Actual Average (KVLD) Record (KVLD)
Temperature  
Mean Temperature 57 °F -  
Max Temperature 72 °F 61 °F 80 °F (2008)
Min Temperature 39 °F 38 °F 26 °F (2000)
Degree Days  
Heating Degree Days 8    
Growing Degree Days 7 (Base 50)    
Moisture  
Dew Point 49 °F    
Average Humidity 73    
Maximum Humidity 97    
Minimum Humidity 30    
Precipitation  
Precipitation 0.00 in - - ()
Sea Level Pressure  
Sea Level Pressure 29.96 in    
Wind  
Wind Speed 7 mph (West)    
Max Wind Speed 13 mph    
Max Gust Speed 17 mph    
Averages and records for this station are not official NWS values.
T = Trace of Precipitation, MM = Missing Value Source: NWS Daily Summary

Daily Weather History Graph

Daily Weather History Graph

Search for Another Location

Airport or City:

Trip Planner

Search our weather history database for the weather conditions in past years. The results will help you decide how hot, cold, wet, or windy it might be!

Date:

Astronomy

Dec. 18, 2012 Rise Set
Actual Time 7:24 AM EST 5:37 PM EST
Civil Twilight 6:58 AM EST 6:04 PM EST
Nautical Twilight 6:28 AM EST 6:33 PM EST
Astronomical Twilight 5:59 AM EST 7:03 PM EST
Moon 11:26 AM EST (12/18) 11:37 PM EST (12/18)
Length of Visible Light 11h 05m
Length of Day
10h 12m
Waxing Crescent, 34% of the Moon is Illuminated
Dec 18
Waxing Crescent
Dec 20
First Quarter
Dec 28
Full
Jan 4
Last Quarter
Jan 11
New

Hourly Weather History & Observations

Time (EST) Temp. Dew Point Humidity Pressure Visibility Wind Dir Wind Speed Gust Speed Precip Events Conditions
12:53 AM 64.9 °F 62.1 °F 90% 29.84 in - SW 8.1 mph - N/A   Unknown
1:53 AM 66.0 °F 62.1 °F 87% 29.85 in - WSW 8.1 mph - N/A   Unknown
2:53 AM 64.0 °F 62.1 °F 93% 29.86 in - SW 8.1 mph - N/A   Unknown
3:53 AM 63.0 °F 61.0 °F 93% 29.86 in - SW 6.9 mph - N/A   Unknown
4:53 AM 63.0 °F 60.1 °F 90% 29.88 in - WSW 8.1 mph - N/A   Unknown
5:53 AM 60.1 °F 57.0 °F 90% 29.88 in - WSW 5.8 mph - N/A   Unknown
6:53 AM 57.0 °F 55.0 °F 93% 29.91 in - WSW 5.8 mph - N/A   Unknown
7:53 AM 57.0 °F 54.0 °F 89% 29.93 in - West 5.8 mph - N/A   Unknown
8:53 AM 59.0 °F 55.9 °F 90% 29.96 in - WNW 8.1 mph - N/A   Unknown
9:53 AM 62.1 °F 55.0 °F 78% 29.99 in - NW 8.1 mph - N/A   Unknown
10:53 AM 64.9 °F 53.1 °F 65% 30.00 in - NW 8.1 mph - N/A   Unknown
11:53 AM 69.1 °F 48.9 °F 49% 29.99 in - WNW 11.5 mph 17.3 mph N/A   Unknown
12:53 PM 69.8 °F 46.4 °F 43% 29.97 in - NW 12.7 mph - N/A   Unknown
1:53 PM 71.1 °F 39.9 °F 32% 29.95 in - NW 12.7 mph - N/A   Unknown
2:53 PM 71.1 °F 42.1 °F 35% 29.95 in - West 10.4 mph - N/A   Unknown
3:53 PM 72.0 °F 39.0 °F 30% 29.96 in - NNW 5.8 mph - N/A   Unknown
4:53 PM 69.1 °F 39.0 °F 33% 29.97 in - NNW 5.8 mph - N/A   Unknown
5:53 PM 60.1 °F 43.0 °F 53% 29.99 in - Calm Calm - N/A   Unknown
6:53 PM 52.0 °F 43.0 °F 71% 30.00 in - Calm Calm - N/A   Unknown
7:53 PM 48.9 °F 43.0 °F 80% 30.02 in - Calm Calm - N/A   Unknown
8:53 PM 46.9 °F 44.1 °F 90% 30.04 in - Calm Calm - N/A   Unknown
9:53 PM 44.1 °F 42.1 °F 93% 30.05 in - Calm Calm - N/A   Unknown
10:53 PM 42.1 °F 41.0 °F 96% 30.04 in - Calm Calm - N/A   Unknown
11:53 PM 39.9 °F 39.0 °F 97% 30.05 in - Calm Calm - N/A   Unknown